Weather History for Garden City, KS

Change the Weather History Date:

Friday, February 15, 2013

  Actual Average Record
Temperature  
Mean Temperature 28 °F 35 °F  
Max Temperature 42 °F 48 °F 70 °F (1976)
Min Temperature 13 °F 21 °F -9 °F (2007)
Degree Days  
Heating Degree Days 37 30  
Month to date heating degree days 404 479  
Since 1 July heating degree days 3428 3659  
Cooling Degree Days 0 0  
Month to date cooling degree days 0 0  
Year to date cooling degree days 0 0  
Moisture  
Dew Point 17 °F    
Average Humidity 65    
Maximum Humidity 100    
Minimum Humidity 30    
Precipitation  
Precipitation 0.00 in 0.02 in 0.30 in (1993)
Month to date precipitation T 0.26  
Year to date precipitation 0.13 0.60  
Sea Level Pressure  
Sea Level Pressure 30.40 in    
Wind  
Wind Speed 7 mph (NNW)    
Max Wind Speed 29 mph    
Max Gust Speed 32 mph    
Visibility 10 miles    
Events      
T = Trace of Precipitation, MM = Missing Value Source: NWS Daily Summary

Daily Weather History Graph

Daily Weather History Graph

Search for Another Location

Airport:

Trip Planner

Search our weather history database for the weather conditions in past years. The results will help you decide how hot, cold, wet, or windy it might be!

Date:

Astronomy

Feb. 15, 2013 Rise Set
Actual Time 7:32 AM CST 6:22 PM CST
Civil Twilight 7:05 AM CST 6:49 PM CST
Nautical Twilight 6:34 AM CST 7:19 PM CST
Astronomical Twilight 6:04 AM CST 7:50 PM CST
Moon 10:16 AM CST (2/15) No Moon Set
Length of Visible Light 11h 43m
Length of Day
10h 49m
Waxing Crescent, 30% of the Moon is Illuminated
Feb 15
Waxing Crescent
Feb 17
First Quarter
Feb 25
Full
Mar 4
Last Quarter
Mar 11
New

Hourly Weather History & Observations

Time (CST) Temp. Windchill Dew Point Humidity Pressure Visibility Wind Dir Wind Speed Gust Speed Precip Events Conditions
12:54 AM 23.0 °F 12.4 °F 17.1 °F 78% 30.39 in 10.0 mi NNW 10.4 mph - N/A   Scattered Clouds
1:54 AM 19.9 °F 10.1 °F 15.1 °F 81% 30.40 in 10.0 mi North 8.1 mph - N/A   Clear
2:54 AM 18.0 °F 7.7 °F 14.0 °F 84% 30.40 in 10.0 mi North 8.1 mph - N/A   Clear
3:54 AM 18.0 °F 8.7 °F 14.0 °F 84% 30.40 in 10.0 mi NNW 6.9 mph - N/A   Partly Cloudy
4:54 AM 18.0 °F 11.1 °F 12.9 °F 81% 30.41 in 10.0 mi NW 4.6 mph - N/A   Clear
5:54 AM 16.0 °F 8.8 °F 12.0 °F 84% 30.44 in 10.0 mi WNW 4.6 mph - N/A   Clear
6:54 AM 16.0 °F - 12.0 °F 84% 30.44 in 10.0 mi Calm Calm - N/A   Clear
7:54 AM 15.1 °F 7.7 °F 12.0 °F 88% 30.45 in 10.0 mi West 4.6 mph - N/A   Mostly Cloudy
8:54 AM 21.0 °F 13.4 °F 15.1 °F 78% 30.44 in 10.0 mi WNW 5.8 mph - N/A   Mostly Cloudy
9:54 AM 26.1 °F 20.5 °F 18.0 °F 71% 30.43 in 10.0 mi WSW 4.6 mph - N/A   Clear
10:54 AM 33.1 °F 26.9 °F 17.1 °F 52% 30.41 in 10.0 mi West 6.9 mph - N/A   Scattered Clouds
11:54 AM 34.0 °F 28.8 °F 15.1 °F 46% 30.41 in 10.0 mi WNW 5.8 mph - N/A   Overcast
12:54 PM 35.1 °F 30.1 °F 14.0 °F 42% 30.40 in 10.0 mi NNW 5.8 mph - N/A   Overcast
1:54 PM 39.0 °F 34.0 °F 14.0 °F 36% 30.36 in 10.0 mi Variable 6.9 mph - N/A   Clear
2:54 PM 39.9 °F 37.8 °F 15.1 °F 36% 30.33 in 10.0 mi Variable 3.5 mph - N/A   Scattered Clouds
3:54 PM 42.1 °F 37.1 °F 14.0 °F 32% 30.31 in 10.0 mi NW 8.1 mph - N/A   Overcast
4:54 PM 39.0 °F 28.0 °F 19.9 °F 46% 30.34 in 10.0 mi North 25.3 mph 32.2 mph N/A   Overcast
5:54 PM 33.1 °F 23.0 °F 26.1 °F 75% 30.37 in 10.0 mi North 15.0 mph - N/A   Mostly Cloudy
6:54 PM 27.0 °F 18.7 °F 21.9 °F 81% 30.39 in 10.0 mi North 8.1 mph - N/A   Clear
7:54 PM 26.1 °F 16.2 °F 24.1 °F 92% 30.42 in 10.0 mi NNE 10.4 mph - N/A   Clear
8:11 PM 26.6 °F 19.1 °F 24.8 °F 93% 30.32 in 10.0 mi NNE 6.9 mph - N/A   Partly Cloudy
8:54 PM 21.9 °F 12.5 °F 21.0 °F 96% 30.43 in 10.0 mi North 8.1 mph - N/A   Clear
9:54 PM 21.0 °F 16.2 °F 19.0 °F 92% 30.45 in 10.0 mi WNW 3.5 mph - N/A   Clear
10:54 PM 23.0 °F 15.8 °F 16.0 °F 74% 30.43 in 10.0 mi NNE 5.8 mph - N/A   Mostly Cloudy
11:54 PM 21.0 °F 14.6 °F 14.0 °F 74% 30.44 in 10.0 mi NW 4.6 mph - N/A   Clear